www.pogodaiklimat.ru

Погода и климат >> Архив погоды >> Индия >> Jagdalpur


ПОГОДА в Jagdalpur

  • Прогноз погоды в Jagdalpur
  • Монитор погоды в Jagdalpur
  • Климат города

АРХИВ ПОГОДЫ в Jagdalpur

Время (UTC), дата Ветер
(напр.,м/с)
 
Видим.   Явления Облачность Т
(С)
Тd
(С)
f
(%)
Тe
(С)
Тes
(С)
Комфортность P
(гПа)
Po
(гПа)
Тmin
(С)
Tmax
(С)
R
(мм)
R24
(мм)
S
(см)
21 16.07 ЮЗ 2 4000 м слабый дождь 10/6 450 м
[Frnb As op]
+22.8 +22.2 96 +31 +31 очень
душно
1000.8 939.8 11
00 17.07 ЮЗ 2 2000 м слабый дождь 10/6 450 м
[Frnb As op]
+23.0 +22.4 96 +31 +31 очень
душно
1000.3 939.4 12
03 17.07 СЗ 2 2000 м слабый дождь 10/8 360 м
[Frnb As op]
+23.2 +22.6 96 +32 +32 очень
душно
1001.6 940.8 +22.1 13
06 17.07 СЗ 2 2000 м слабый дождь 10/8 360 м
[Frnb As op]
+23.6 +23.0 96 +31 +32 очень
душно
1000.9 940.2 5
09 17.07 СЗ 1 2000 м слабый дождь {метель} 10/6 450 м
[Frnb As op]
+24.0 +23.4 96 +32 +34 очень
душно
999.0 938.4 8
12 17.07 СЗ 1 2000 м слабый дождь 10/6 450 м
[Frnb As op]
+24.4 +23.3 94 +33 +33 очень
душно
997.6 937.2 +24.6 8
15 17.07 З 1 2000 м слабый дождь 10/6 360 м
[Frnb As op]
+23.6 +22.7 95 +31 +31 очень
душно
999.7 939.0 9
18 17.07 СЗ 1 2000 м слабый дождь 10/6 360 м
[Frnb As op]
+23.6 +23.0 96 +31 +31 очень
душно
1000.1 939.4 9
21 17.07 СЗ 1 2000 м слабый дождь {гроза} 10/6 450 м
[Frnb As op]
+23.4 +22.8 96 +33 +33 очень
душно
998.6 938.0 12
00 18.07 СЗ 3 2000 м слабый ливневой дождь, в посл. час гроза 10/6 450 м
[Frnb As op]
+23.0 +22.7 98 +32 +32 очень
душно
997.3 936.6 105
03 18.07 З 1 2000 м дождь 10/8 360 м
[Frnb As op]
+23.0 +22.7 98 +32 +32 очень
душно
997.6 936.9 +20.6 122
06 18.07 СЗ 1 2000 м слабый дождь 10/8 360 м
[Frnb As op]
+24.0 +23.7 98 +33 +34 очень
душно
997.4 936.9 12
09 18.07 ЮЗ 2 200 м гроза, ливневой дождь 10/8 360 м
[Cb cap As op]
+23.0 +22.7 98 +32 +32 очень
душно
995.9 935.2 66
12 18.07 ЮЗ 2 2000 м слабый дождь {гроза} 10/8 360 м
[Frnb As op]
+23.4 +23.1 98 +33 +33 очень
душно
995.6 935.1 +24.5 154
15 18.07 ЮЗ 1 2000 м слабый дождь 10/8 360 м
[Frnb As op]
+23.6 +22.7 95 +31 +31 очень
душно
997.6 937.0 164
18 18.07 ЮЗ 1 2000 м слабый дождь 10/8 360 м
[Frnb As op]
+23.0 +22.4 96 +31 +31 очень
душно
998.3 937.5 177
21 18.07 ЮЗ 1 2000 м слабый дождь 10/6 360 м
[Frnb As op]
+23.0 +22.4 96 +31 +31 очень
душно
997.4 936.7 178
00 19.07 З 2 2000 м слабый дождь 10/6 360 м
[Frnb As op]
+23.0 +22.4 96 +31 +31 очень
душно
998.5 937.7 186
03 19.07 ЮЗ 2 2000 м слабый дождь 10/8 360 м
[Frnb As op]
+23.4 +22.5 95 +32 +33 очень
душно
1000.2 939.5 +21.6 191
06 19.07 СЗ 2 4000 м {дождь} 9/5 450 м
[St As trans]
+26.0 +23.2 85 +35 +41 очень
душно
999.3 939.0 0.2
09 19.07 З 3 4000 м 10/6 450 м
[St As trans]
+26.8 +22.2 76 +35 +37 очень
душно
997.6 937.6 0.2
12 19.07 З 3 4000 м 9/6 450 м
[St Ci fib]
+26.6 +22.6 79 +35 +35 очень
душно
996.6 936.7 +28.1 0.2
15 19.07 Ю 1 4000 м 8/5 450 м
[St Ac trans]
+24.6 +23.2 92 +33 +33 очень
душно
999.1 938.7 0.2
18 19.07 штиль 0 4000 м слабый дождь 10/6 450 м
[Frnb As op]
+24.0 +22.8 93 +32 +32 очень
душно
1000.4 939.7 0.2
21 19.07 штиль 0 4000 м слабая морось {дождь} 10/6 450 м
[Frnb As op]
+23.6 +22.7 95 +31 +31 очень
душно
998.6 938.0 0.2
00 20.07 З 1 4000 м {морось} 10/6 450 м
[St As trans]
+23.6 +22.1 91 +30 +30 очень
душно
999.3 938.7 0.2
03 20.07 штиль 0 50 км слабый дождь ?/? +24.4 +23.0 92 +32 +32 очень
душно
1000.9 940.4 +22.7 0.2
06 20.07 ЮЗ 3 4000 м {дождь} 10/6 450 м
[St As op]
+26.4 +23.0 82 +35 +37 очень
душно
1000.5 940.4 0.0
09 20.07 ЮЗ 3 4000 м 9/5 450 м
[St As trans Ci fib]
+27.7 +23.5 78 +38 +41 очень
душно
998.6 938.8 0.0
12 20.07 ЮЗ 3 2000 м дождь 10/6 450 м
[Frnb As op]
+26.8 +23.4 82 +36 +36 очень
душно
998.4 938.4 +28.7 0.0
15 20.07 Ю 2 4000 м {дождь} 8/5 450 м
[St Ac trans]
+25.0 +23.6 92 +34 +34 очень
душно
1000.5 940.0 0.4
18 20.07 ЮЗ 1 4000 м 9/6 450 м
[St Ac trans]
+25.6 +23.3 87 +34 +34 очень
душно
1001.6 941.2 0.4
21 20.07 ЮЗ 1 4000 м 10/6 450 м
[St As trans]
+25.0 +23.0 89 +33 +33 очень
душно
1001.1 940.6
00 21.07 ЮЗ 2 4000 м 9/6 450 м
[St Ac trans]
+24.6 +22.3 87 +32 +32 очень
душно
1001.7 941.0 0.4
03 21.07 З 2 4000 м 9/6 450 м
[St As trans]
+25.8 +22.7 83 +34 +36 очень
душно
1003.6 943.1 +23.6 0.4
06 21.07 ЮЗ 3 4000 м 8/8 450 м
[St]
+28.4 +24.8 81 +41 +45 опасность
перегрева
1002.1 942.3
09 21.07 Ю 2 4000 м 9/6 450 м
[St Ac trans]
+29.0 +24.3 76 +41 +44 опасность
перегрева
1000.2 944.5
12 21.07 З 1 4000 м 6/3 750 м
[Sc As trans]
+28.6 +24.4 78 +40 +41 очень
душно
999.8 940.1 +29.7
15 21.07 ЮЗ 1 4000 м 6/6 750 м
[Sc]
+26.4 +24.4 89 +37 +37 очень
душно
1002.6 942.3
18 21.07 ЮЗ 1 4000 м 10/5 750 м
[Sc As trans]
+25.7 +23.2 86 +34 +34 очень
душно
1003.3 942.9
21 21.07 ЮЗ 1 4000 м 10/6 750 м
[Sc As trans]
+25.4 +24.1 93 +35 +35 очень
душно
1002.4 942.0
00 22.07 ЮЗ 1 4000 м 10/6 450 м
[St As trans]
+25.0 +23.3 90 +33 +33 очень
душно
1002.4 941.7
03 22.07 ЮЗ 2 4000 м 10/6 450 м
[St As trans]
+26.0 +22.6 82 +34 +36 очень
душно
1003.8 943.2 +24.1
06 22.07 З 2 4000 м 10/6 450 м
[St As trans]
+28.4 +22.7 71 +38 +41 очень
душно
1003.2 942.2
09 22.07 ЮЗ 2 4000 м 10/6 450 м
[St As trans]
+29.4 +22.9 68 +39 +41 очень
душно
1001.1 941.5
12 22.07 З 2 4000 м 10/6 450 м
[St As trans]
+29.0 +22.8 69 +38 +39 очень
душно
1001.3 941.5 +30.5
15 22.07 ЮЗ 2 4000 м 10/5 600 м
[Sc As trans]
+26.4 +23.9 86 +36 +36 очень
душно
1003.3 943.0
18 22.07 ЮЗ 3 4000 м 10/6 450 м
[St As trans]
+25.8 +23.5 87 +35 +35 очень
душно
1003.7 943.2
21 22.07 ЮЗ 2 4000 м 10/6 450 м
[St As trans]
+25.5 +23.3 88 +34 +34 очень
душно
1002.0 941.6
00 23.07 ЮЗ 2 4000 м 10/4 750 м
[Sc As trans]
+25.0 +23.0 89 +33 +33 очень
душно
1002.2 941.6
03 23.07 ЮЗ 2 4000 м 10/6 450 м
[St As trans]
+26.4 +23.6 85 +36 +38 очень
душно
1003.6 943.2 +24.4
06 23.07 ЮЗ 2 4000 м 10/6 450 м
[St As trans]
+28.4 +23.3 74 +38 +42 очень
душно
1003.5 943.5
09 23.07 З 1 4000 м 10/6 450 м
[St As trans]
+29.0 +23.4 72 +39 +42 очень
душно
1001.7 941.9
12 23.07 ЮЗ 1 4000 м 10/6 450 м
[St As trans]
+28.2 +21.6 67 +36 +36 очень
душно
1000.9 941.1 +29.7
15 23.07 Ю 1 4000 м 6/3 750 м
[Sc Ac trans]
+26.0 +23.2 85 +35 +35 очень
душно
1002.8 942.4
18 23.07 Ю 1 4000 м 10/4 750 м
[Sc As trans]
+25.6 +23.3 87 +34 +34 очень
душно
943.0

 

Местоположение метеостанции Jagdalpur (Chhattisgarh, Индия): широта 19.08 долгота 82.03 высота над уровнем моря 553 м.

В архиве по умолчанию представлена погода в Jagdalpur за последнюю неделю. Архивные данные за месяц целиком и за предыдущие месяцы, начиная с января 2011 года, Вы можете получить, выбрав интересующий диапазон дат из раскрывающегося списка и нажав кнопку "Ввод!".

Внимание! Время в таблицах - всемирное. Для получения местного времени необходимо прибавить поправку, которая в Jagdalpur равна 5.5 ч.

Смотрите также архив погоды в соседних городах и на ближайших метеорологических станциях:

Погода в Koraput (Orissa, Индия) (78 км)
Погода в Bhawanipatna (Orissa, Индия) (153 км)
Погода в Titlagarh (Orissa, Индия) (190 км)
Погода в Visakhapatnam (Andhra Pradesh, Индия) (197 км)
Погода в Bhadrachalam (Telangana, Индия) (198 км)
Погода в Tuni (Andhra Pradesh, Индия) (200 км)
Погода в Visakhapatnam Walt (Andhra Pradesh, Индия) (204 км)
Погода в Kalingapatam (Andhra Pradesh, Индия) (236 км)
Погода в Kakinada (Andhra Pradesh, Индия) (238 км)
Погода в Raipur (Chhattisgarh, Индия) (242 км)

Пояснения к столбцам:

Ветер - указаны скорость ветра в м/с - средняя за 10 мин, порывы в срок и между сроками (в фигурных скобках) и направление, откуда дует ветер: С - северный, СВ - северо-восточный, В - восточный, ЮВ - юго-восточный, Ю - южный, ЮЗ - юго-западный, З - западный, СЗ - северо-западный.
Видимость - горизонтальная дальность видимости в метрах или километрах. При видимости от 1 до 10 км при отсутствии осадков обычно наблюдается дымка, при ухудшении видимости до 1 км и менее - туман. В сухую погоду видимость может ухудшаться дымом, пылью или мглою.
Явления - указаны атмосферные явления, наблюдавшиеся в срок или в последний час перед сроком; фигурными скобками обозначены явления, наблюдавшиеся между сроками (за 1-3 часа до срока); квадратными скобками обозначены град или гололедные отложения с указанием их диаметра в мм.
Облачность - указаны через наклонную черту общая и нижняя облачность в баллах и высота нижней границы облаков в метрах; квадратными скобками обозначены формы облаков: Ci - перистые, Cs - перисто-слоистые, Cc - перисто-кучевые, Ac - высококучевые, As - высокослоистые, Sc - слоисто-кучевые, Ns - слоисто-дождевые, Cu - кучевые, Cb - кучево-дождевые. Подробнее классификацию облаков см. в Атласе облаков (PDF).
T - Температура воздуха - температура, измеренная на высоте 2 м над землей.
Td - Температура точки росы - температура, при понижении до которой содержащийся в воздухе водяной пар достигнет насыщения.
f - Относительная влажность воздуха - влажноcть воздуха, измеренная на высоте 2 м над землей.
Te - Эффективная температура - температура, которую ощущает одетый по сезону человек в тени. Характеристика душности погоды. При расчете учитывается влияние влажности воздуха и скорости ветра на теплоощущения человека.
Tes - Эффективная температура на солнце - температура, которую ощущает человек, с поправкой на солнечный нагрев. Характеристика знойности погоды. Зависит от высоты солнца над горизонтом, облачности и скорости ветра. Ночью, в пасмурную погоду, а также при ветре 12 м/с и более поправка равна нулю.
P - Атмосферное давление - приведенное к уровню моря атмосферное давление.
Po - Атмосферное давление - измеренное на уровне метеостанции атмосферное давление.
Tmin - Минимальная температура - минимум температуры воздуха на высоте 2 м над землей.
Tmax - Максимальная температура - максимум температуры воздуха на высоте 2 м над землей.
R - Количество осадков - Количество выпавших осадков за период времени, мм. При наведении курсора мыши на число - период времени, за который выпало указанное количество осадков.
R24 - Количество осадков - Количество выпавших осадков за 24 часа, мм.
S - Снежный покров - Высота снежного покрова, см. При наведении курсора мыши на число - состояние снежного покрова и степень покрытия местности в баллах.